カタログに戻る

GALAXY 1

運用中通信GEO
NORAD 14158·PAYLOAD·🇺🇸 United States

打ち上げ Jun 28, 1983 から Cape Canaveral Space Force Station

Loading…

TLE

最新Source: Space-Track

元期: Sep 14, 2026, 11:08 UTC

1 14158U 83065A   26257.46403885  .00000081  00000-0  00000-0 0  9990
2 14158  13.5359 341.0152 0003423 268.2461 131.8164  1.00117676 47525

AllMySatでGALAXY 1をリアルタイム追跡

Download on the App Store